+ View the NASA Portal
+ Center for Near-Earth Object Studies
JPL Small-Body Database Browser
Search:
[
help
]
16336 (5080 T-2)
Classification:
Main-belt Asteroid
SPK-ID:
2016336
[
Ephemeris
|
Orbit Diagram
|
Orbital Elements
|
Mission Design
|
Physical Parameters
|
Discovery Circumstances
|
Close-Approach Data
]
[ show orbit diagram ]
Orbital Elements at Epoch 2459000.5 (2020-May-31.0) TDB
Reference:
JPL 16
(heliocentric ecliptic J2000)
Element
Value
Uncertainty (1-sigma)
Units
e
.1403718721519197
3.3884e-08
a
2.283968338191631
8.3526e-09
au
q
1.963363426623963
7.7666e-08
au
i
5.748188249022691
3.4034e-06
deg
node
267.4140328721059
4.3614e-05
deg
peri
30.07164507912111
4.8353e-05
deg
M
240.9381976940803
2.4046e-05
deg
t
p
2459417.468739969139
(2021-Jul-21.96873997)
8.5192e-05
TDB
period
1260.763263126135
3.45
6.916e-06
1.893e-08
d
yr
n
.2855413149550053
1.5664e-09
deg/d
Q
2.6045732497593
9.5251e-09
au
Orbit Determination Parameters
# obs. used (total)
1054
data-arc span
17016 days (46.59 yr)
first obs. used
1973-09-20
last obs. used
2020-04-22
planetary ephem.
DE431
SB-pert. ephem.
SB431-N16
condition code
0
norm. resid. RMS
.54058
source
ORB
producer
Otto Matic
solution date
2020-May-20 04:21:52
Additional Information
Earth MOID
= .949839 au
Jupiter MOID
= 2.57541 au
T_jup
= 3.584
[ show covariance matrix ]
[
Ephemeris
|
Orbit Diagram
|
Orbital Elements
|
Mission Design
|
Physical Parameters
|
Discovery Circumstances
|
Close-Approach Data
]
Physical Parameter Table
Parameter
Symbol
Value
Units
Sigma
Reference
Notes
absolute magnitude
H
15.3
n/a
MPO412305
diameter
diameter
2.247
km
0.506
urn:nasa:pds:neowise_diameters_albedos::2.0[mainbelt] (http://adsabs.harvard.edu/abs/2011ApJ...741...68M)
geometric albedo
albedo
0.319
0.109
urn:nasa:pds:neowise_diameters_albedos::2.0[mainbelt] (http://adsabs.harvard.edu/abs/2011ApJ...741...68M)
16336 (5080 T-2)
Discovered 1973-Sep-25 by van Houten, C. J., van Houten-Groeneveld, I., Gehrels, T. at Palomar
Reference:
20000726/Numbers.arc
Last Updated:
2004-04-19
[ show close-approach data ]
Alternate Designations
5080 T-2
= 1996 ER11
[
Ephemeris
|
Orbit Diagram
|
Orbital Elements
|
Mission Design
|
Physical Parameters
|
Discovery Circumstances
|
Close-Approach Data
]
2021-Jan-22 23:53 UT
(server date/time)
Site Manager:
Ryan S. Park
Webmaster
:
Alan B. Chamberlin